Regional Weather Roundup
Issued by NWS Upton, NY

Current Version | Previous Version | Graphics & Text | Print | Product List | Glossary Off
Versions: 1 2 3 4 5 6 7 8 9 10 11 12 13 14 15 16 17 18 19 20 21 22 23 24 25 26 27 28 29 30 31 32 33 34 35 36 37 38 39 40 41 42 43 44 45 46 47 48 49 50

000
ASUS41 KOKX 031905
RWROKX

REGIONAL WEATHER ROUNDUP
NATIONAL WEATHER SERVICE NEW YORK NY
200 PM EST TUE MAR 03 2015

NOTE: "FAIR" INDICATES FEW OR NO CLOUDS BELOW 12,000 FEET WITH NO
SIGNIFICANT WEATHER AND/OR OBSTRUCTIONS TO VISIBILITY.

NYZ071-072-176-178-NJZ106-104-032000-
NEW YORK CITY METRO AREA


CITY           SKY/WX    TMP DP  RH WIND       PRES   REMARKS
CENTRAL PARK   CLOUDY    31  14  49 S8        30.33F WCI  23
LAGUARDIA APRT CLOUDY    30  14  51 S13       30.31F WCI  20
KENNEDY INTL   CLOUDY    31  16  54 S12       30.33F WCI  22
NEWARK/LIBERTY CLOUDY    31  16  54 SE7       30.32F WCI  24
BRNX BOT. GARD   N/A    N/A N/A N/A E18       30.33R
TETERBORO      CLOUDY    31  15  52 S9        30.31F WCI  23
$$

NYZ177-179-078>081-032000-
LONG ISLAND NEW YORK

CITY           SKY/WX    TMP DP  RH WIND       PRES   REMARKS
FARMINGDALE    CLOUDY    28  11  48 S6        30.33F WCI  22
ISLIP          CLOUDY    28   8  43 S9        30.32F WCI  19
SHIRLEY        CLOUDY    28  11  48 S9        30.35F WCI  19
WESTHAMPTON    CLOUDY    28  12  51 S9        30.35F WCI  19
MONTAUK POINT    N/A     28  14  55 S5        30.34F WCI  23
$$

NYZ052-065-067-032000-
HUDSON VALLEY

CITY           SKY/WX    TMP DP  RH WIND       PRES   REMARKS
WHITE PLAINS   CLOUDY    27   9  46 SE8       30.28F WCI  19
NEWBURGH       CLOUDY    28  14  54 SE14      30.27F WCI  17
MONTGOMERY     CLOUDY    28  11  48 S10       30.24F WCI  19
POUGHKEEPSIE   CLOUDY    30   9  41 SW9       30.28F WCI  22
ALBANY         CLOUDY    27   5  39 S13G18    30.23F WCI  16
$$

NJZ001-105-106-008-010-013-015-019>022-104-032000-
NEW JERSEY

CITY           SKY/WX    TMP DP  RH WIND       PRES   REMARKS
NEWARK/LIBERTY CLOUDY    31  16  54 SE7       30.32F WCI  24
TETERBORO      CLOUDY    31  15  52 S9        30.31F WCI  23
CALDWELL       CLOUDY    29  14  53 SW6       30.30F WCI  23
MORRISTOWN     CLOUDY    30  16  55 S6        30.31F WCI  24
SOMERVILLE     CLOUDY    31  13  47 S6        30.27F WCI  25
SUSSEX         CLOUDY    28  11  48 S6        30.25F WCI  22
ANDOVER          N/A     27  11  51 S9        30.24F WCI  18
TRENTON        CLOUDY    31  14  49 S5        30.27F WCI  26
MILLVILLE      CLOUDY    33  19  56 S8        30.27F WCI  26
ATLANTIC CITY  CLOUDY    33  21  61 S8        30.29F WCI  26
WRIGHTSTOWN    NOT AVBL
TOMS RIVER     CLOUDY    32  18  55 S15       30.29F WCI  22
BELMAR         CLOUDY    30  16  55 SE10G16   30.29F WCI  21
$$

PAZ047>061-062-071-032000-
EASTERN PENNSYLVANIA

CITY           SKY/WX    TMP DP  RH WIND       PRES   REMARKS
PHILADELPHIA   CLOUDY    33  15  47 S8        30.29F WCI  26
ALLENTOWN      LGT SNOW  25  19  78 SE5       30.28F VSB 1   WCI  19
SCRANTON       LGT SNOW  23  17  78 S5        30.16F VSB 3/4 WCI  17
$$

CTZ002-004>006-009-010-012-RIZ004-006-007-MAZ004-011-015-032000-
SOUTHERN NEW ENGLAND
 IN CT

CITY           SKY/WX    TMP DP  RH WIND       PRES   REMARKS
BRADLEY INTL   CLOUDY    29   6  38 S9        30.28F WCI  20
HARTFORD       CLOUDY    29   3  33 S8        30.30F WCI  21
DANBURY        CLOUDY    27   3  35 S13       30.30F WCI  16
WTRBRY/OXFORD  CLOUDY    27   5  39 S8        30.27F WCI  18
BRIDGEPORT     CLOUDY    27  12  53 SW3       30.34F
MERIDEN        CLOUDY    29   5  36 SE5       30.30F WCI  24
NEW HAVEN      CLOUDY    26  10  50 S6        30.32F WCI  19
CHESTER        FAIR      28   9  43 S6        30.30F WCI  22
GROTON         CLOUDY    25  11  55 S5        30.32F WCI  19
WILLIMANTIC    CLOUDY    30   6  36 SW7       30.29F WCI  23

 IN RI

CITY           SKY/WX    TMP DP  RH WIND       PRES   REMARKS
PROVIDENCE     CLOUDY    28  11  48 SE12      30.32F WCI  18
BLOCK ISLAND   CLOUDY    27  12  54 S7        30.32F WCI  19
WESTERLY       CLOUDY    27  12  53 S8        30.33F WCI  19

 IN MA

CITY           SKY/WX    TMP DP  RH WIND       PRES   REMARKS
BOSTON         CLOUDY    29   3  33 S7        30.30F WCI  22
WORCESTER      CLOUDY    26   5  40 S9        30.22F WCI  17
WESTFIELD      CLOUDY    28   4  35 S8        30.27F WCI  20
PROVINCETOWN   PTSUNNY   27   9  46 SW5       30.34F WCI  21
NANTUCKET      CLOUDY    26   7  44 SW8       30.35F WCI  18
$$

ANZ330-335-338-340-345-350-353-355-032000-
COASTAL MARINE OBSERVATIONS


STATION/POSITION TIME  SKY/WX   TEMP    WIND        PRES    VSBY  WAVE
                                AIR SEA DIR/SP/G                  HT/PER
                 (UTC)          (F)     (DEG/KT/KT) (MB)    (MI)  (FT/S)
NY HARB ENTRANCE 1900            31 38  160/ 12/ 14 1026.6          1/ 8
4S FIRE IS       1900               33                N/A           1/10
20S FIRE ISLAND  1800               36              1029.2          1/ 8
23SW MTP         1900                                 N/A           1/ 9
HUDSON CANYON    NOT AVBL
EXECUTION ROCKS  NOT AVBL
WESTERN LI SOUND NOT AVBL
CENTRAL LI SOUND NOT AVBL
EASTERN LI SOUND NOT AVBL
ROBBINS REEF     1800            29     150/ 15/ 18 1025.3
$$


>>>>>>>>>>>>>>>>>>>>>>>>>>>> KEY <<<<<<<<<<<<<<<<<<<<<<<<<<<
>                                                          <
>     SKY/WX - SKY CONDITION/PRESENT WEATHER               <
>     TMP    - TEMPERATURE IN FAHRENHEIT                   <
>     DP     - DEWPOINT IN FAHRENHEIT                      <
>     RH     - RELATIVE HUMIDITY IN PERCENT                <
>     WIND   - DIRECTION AND SPEED IN MPH                  <
>     PRES   - MEAN SEA LEVEL PRESSURE IN INCHES OF HG     <
>     WCI    - WIND CHILL INDEX                            <
>     VSB    - VISIBILITY IN MILES                         <
>     HX     - HEAT INDEX                                  <
>     TC     - TEMPERATURE IN CELSIUS                      <
>     VRB    - VARIABLE WIND DIRECTION                     <
>                                                          <
>>>>>>>>>>>>>>>>>>>>>>>>>>>> KEY <<<<<<<<<<<<<<<<<<<<<<<<<<<




USA.gov is the U.S. government's official web portal to all federal, state and local government web resources and services.